Location: Big Sable Point
(44.0575°N, 86.5149°W)
Time: 18:21:01
(UTC-04:00)

Tiangong 2 - Pass Details

Date: 18 July 2018
Orbit: 384 x 395 km, 42.8° (Epoch: 18 August)

Event Time Altitude Azimuth Distance (km) Brightness Sun altitude
Rises 23:28:53 0° 276° (W) 2,261 5.6 -17.2°
Reaches altitude 10° 23:31:01 10° 269° (W) 1,404 4.3 -17.5°
Enters shadow 23:33:45 41° 213° (SSW) 565 1.7 -17.7°
